When you browse on this site, cookies collect data to enhance your experience and personalize the content and advertising you see.
Visit our Privacy Policy to learn more. By continuing to use the site, you agree to this use of cookies and data.
EN

Hourly Weather Yulara

Today, 7 July, Tuesday

Time Temperature Precipitation Wind Pressure Humidity
00:00 +6°C° 0 mm 4 mps 724 mmHg 61%
01:00 +5°C° 0 mm 4 mps 724 mmHg 64%
02:00 +5°C° 0 mm 4 mps 724 mmHg 67%
03:00 +4°C° 0 mm 4 mps 724 mmHg 72%
04:00 +3°C° 0 mm 4 mps 724 mmHg 76%
05:00 +3°C° 0 mm 4 mps 724 mmHg 79%
06:00 +3°C° 0 mm 3 mps 724 mmHg 82%
07:00 +4°C° 0 mm 4 mps 724 mmHg 75%
08:00 +6°C° 0 mm 4 mps 725 mmHg 67%
09:00 +8°C° 0 mm 4 mps 725 mmHg 58%
10:00 +11°C° 0 mm 4 mps 725 mmHg 51%
11:00 +13°C° 0 mm 3 mps 724 mmHg 43%
12:00 +16°C° 0 mm 3 mps 724 mmHg 36%
13:00 +18°C° 0 mm 3 mps 723 mmHg 33%
14:00 +19°C° 0 mm 3 mps 722 mmHg 29%
15:00 +20°C° 0 mm 3 mps 722 mmHg 26%
16:00 +18°C° 0 mm 3 mps 722 mmHg 30%
17:00 +14°C° 0 mm 3 mps 722 mmHg 34%
18:00 +12°C° 0 mm 3 mps 721 mmHg 39%
19:00 +11°C° 0 mm 3 mps 722 mmHg 41%
20:00 +11°C° 0 mm 3 mps 722 mmHg 43%
21:00 +10°C° 0 mm 3 mps 723 mmHg 46%
22:00 +9°C° 0 mm 3 mps 722 mmHg 48%
23:00 +8°C° 0 mm 3 mps 722 mmHg 51%

Tomorrow, 8 July, Wednesday

Time Temperature Precipitation Wind Pressure Humidity
00:00 +7°C° 0 mm 3 mps 722 mmHg 53%
01:00 +5°C° 0 mm 3 mps 722 mmHg 57%
02:00 +5°C° 0 mm 3 mps 722 mmHg 61%
03:00 +4°C° 0 mm 3 mps 722 mmHg 65%
04:00 +3°C° 0 mm 3 mps 722 mmHg 67%
05:00 +3°C° 0 mm 3 mps 722 mmHg 69%
06:00 +3°C° 0 mm 3 mps 722 mmHg 72%
07:00 +5°C° 0 mm 3 mps 722 mmHg 64%
08:00 +8°C° 0 mm 3 mps 723 mmHg 56%
09:00 +10°C° 0 mm 3 mps 723 mmHg 48%
10:00 +12°C° 0 mm 3 mps 723 mmHg 41%
11:00 +14°C° 0 mm 3 mps 722 mmHg 35%
12:00 +18°C° 0 mm 2 mps 722 mmHg 28%
13:00 +19°C° 0 mm 3 mps 721 mmHg 26%
14:00 +20°C° 0 mm 3 mps 721 mmHg 23%
15:00 +21°C° 0 mm 4 mps 720 mmHg 20%
16:00 +19°C° 0 mm 4 mps 720 mmHg 23%
17:00 +17°C° 0 mm 3 mps 720 mmHg 26%
18:00 +14°C° 0 mm 3 mps 720 mmHg 29%
19:00 +13°C° 0 mm 3 mps 720 mmHg 31%
20:00 +12°C° 0 mm 3 mps 721 mmHg 32%
21:00 +11°C° 0 mm 3 mps 721 mmHg 34%
22:00 +10°C° 0 mm 3 mps 721 mmHg 38%
23:00 +9°C° 0 mm 3 mps 721 mmHg 41%

Day after tomorrow, 9 July, Thursday

Time Temperature Precipitation Wind Pressure Humidity
00:00 +8°C° 0 mm 2 mps 721 mmHg 45%
01:00 +7°C° 0 mm 2 mps 721 mmHg 46%
02:00 +7°C° 0 mm 2 mps 720 mmHg 47%
03:00 +7°C° 0 mm 2 mps 720 mmHg 48%
04:00 +7°C° 0 mm 2 mps 721 mmHg 49%
05:00 +7°C° 0 mm 2 mps 721 mmHg 50%
06:00 +6°C° 0 mm 2 mps 721 mmHg 52%
07:00 +8°C° 0 mm 2 mps 721 mmHg 47%
08:00 +10°C° 0 mm 2 mps 722 mmHg 42%
09:00 +13°C° 0 mm 2 mps 722 mmHg 37%
10:00 +15°C° 0 mm 2 mps 722 mmHg 32%
11:00 +17°C° 0 mm 2 mps 722 mmHg 28%
12:00 +20°C° 0 mm 2 mps 721 mmHg 23%
13:00 +21°C° 0 mm 2 mps 721 mmHg 22%
14:00 +22°C° 0 mm 3 mps 720 mmHg 20%
15:00 +24°C° 0 mm 3 mps 720 mmHg 18%
16:00 +20°C° 0 mm 3 mps 720 mmHg 23%
17:00 +17°C° 0 mm 3 mps 720 mmHg 28%
18:00 +14°C° 0 mm 2 mps 720 mmHg 33%
19:00 +13°C° 0 mm 3 mps 720 mmHg 34%
20:00 +12°C° 0 mm 3 mps 720 mmHg 35%
21:00 +11°C° 0 mm 3 mps 721 mmHg 35%
22:00 +10°C° 0 mm 3 mps 721 mmHg 40%
23:00 +9°C° 0 mm 2 mps 721 mmHg 44%

10 July, Friday

Time Temperature Precipitation Wind Pressure Humidity
00:00 +8°C° 0 mm 2 mps 721 mmHg 48%
01:00 +8°C° 0 mm 1 mps 720 mmHg 53%
02:00 +7°C° 0 mm 1 mps 720 mmHg 58%
03:00 +6°C° 0 mm 0 mps 720 mmHg 63%
04:00 +6°C° 0 mm 0 mps 720 mmHg 63%
05:00 +6°C° 0 mm 1 mps 720 mmHg 63%
06:00 +6°C° 0 mm 1 mps 721 mmHg 62%
07:00 +10°C° 0 mm 1 mps 721 mmHg 50%
08:00 +13°C° 0 mm 1 mps 722 mmHg 38%
09:00 +16°C° 0 mm 2 mps 723 mmHg 26%
10:00 +18°C° 0 mm 2 mps 723 mmHg 24%
11:00 +19°C° 0 mm 2 mps 723 mmHg 23%
12:00 +21°C° 0 mm 2 mps 723 mmHg 22%
13:00 +22°C° 0 mm 3 mps 722 mmHg 22%
14:00 +22°C° 0 mm 4 mps 722 mmHg 21%
15:00 +23°C° 0 mm 4 mps 721 mmHg 21%
16:00 +21°C° 0 mm 4 mps 722 mmHg 26%
17:00 +19°C° 0 mm 4 mps 722 mmHg 31%
18:00 +16°C° 0 mm 5 mps 722 mmHg 36%
19:00 +15°C° 0 mm 5 mps 722 mmHg 42%
20:00 +13°C° 0 mm 5 mps 723 mmHg 48%
21:00 +11°C° 0 mm 6 mps 723 mmHg 54%
22:00 +10°C° 0 mm 6 mps 723 mmHg 54%
23:00 +9°C° 0 mm 6 mps 724 mmHg 54%

11 July, Saturday

Time Temperature Precipitation Wind Pressure Humidity
00:00 +8°C° 0 mm 6 mps 724 mmHg 55%
01:00 +7°C° 0 mm 5 mps 723 mmHg 56%
02:00 +6°C° 0 mm 4 mps 723 mmHg 57%
03:00 +5°C° 0 mm 4 mps 723 mmHg 58%
04:00 +5°C° 0 mm 3 mps 723 mmHg 59%
05:00 +4°C° 0 mm 3 mps 723 mmHg 59%
06:00 +3°C° 0 mm 3 mps 723 mmHg 60%
07:00 +5°C° 0 mm 3 mps 724 mmHg 54%
08:00 +7°C° 0 mm 3 mps 724 mmHg 48%
09:00 +8°C° 0 mm 4 mps 725 mmHg 42%
10:00 +11°C° 0 mm 3 mps 725 mmHg 37%
11:00 +12°C° 0 mm 3 mps 724 mmHg 32%
12:00 +14°C° 0 mm 3 mps 724 mmHg 27%
13:00 +16°C° 0 mm 3 mps 723 mmHg 24%
14:00 +17°C° 0 mm 3 mps 723 mmHg 22%
15:00 +18°C° 0 mm 3 mps 722 mmHg 19%
16:00 +16°C° 0 mm 3 mps 722 mmHg 24%
17:00 +13°C° 0 mm 3 mps 722 mmHg 29%
18:00 +10°C° 0 mm 3 mps 722 mmHg 34%
19:00 +10°C° 0 mm 4 mps 722 mmHg 37%
20:00 +8°C° 0 mm 4 mps 723 mmHg 40%
21:00 +7°C° 0 mm 5 mps 723 mmHg 43%
22:00 +6°C° 0 mm 5 mps 724 mmHg 48%
23:00 +5°C° 0 mm 5 mps 724 mmHg 54%

12 July, Sunday

Time Temperature Precipitation Wind Pressure Humidity
00:00 +5°C° 0 mm 5 mps 724 mmHg 60%
01:00 +4°C° 0 mm 4 mps 724 mmHg 64%
02:00 +3°C° 0 mm 4 mps 723 mmHg 69%
03:00 +3°C° 0 mm 4 mps 723 mmHg 74%
04:00 +1°C° 0 mm 4 mps 723 mmHg 77%
05:00 +2°C° 0 mm 3 mps 723 mmHg 80%
06:00 +2°C° 0 mm 3 mps 724 mmHg 83%
07:00 +3°C° 0 mm 4 mps 724 mmHg 75%
08:00 +5°C° 0 mm 4 mps 724 mmHg 67%
09:00 +7°C° 0 mm 4 mps 725 mmHg 59%
10:00 +10°C° 0 mm 4 mps 724 mmHg 51%
11:00 +12°C° 0 mm 5 mps 724 mmHg 43%
12:00 +14°C° 0 mm 5 mps 724 mmHg 35%
13:00 +15°C° 0 mm 5 mps 723 mmHg 32%
14:00 +16°C° 0 mm 5 mps 722 mmHg 29%
15:00 +18°C° 0 mm 4 mps 722 mmHg 25%
16:00 +15°C° 0 mm 4 mps 722 mmHg 29%
17:00 +13°C° 0 mm 4 mps 722 mmHg 33%
18:00 +11°C° 0 mm 3 mps 722 mmHg 37%
19:00 +10°C° 0 mm 4 mps 722 mmHg 40%
20:00 +8°C° 0 mm 4 mps 723 mmHg 44%
21:00 +7°C° 0 mm 4 mps 723 mmHg 48%
22:00 +6°C° 0 mm 4 mps 723 mmHg 52%
23:00 +6°C° 0 mm 4 mps 723 mmHg 57%
Show more